Kuchera_Ratio
0.0 0.0 0.0 0.0 0.0 0.0 0.0 0.0 0.0 0.0 0.0 0.0 0.0 0.0 0.0 0.0 0.0 0.0 0.0 0.0 0.0 0.3 0.0 1.7 4.9 5.1 0.1 0.0 0.0 7.0 4.7 7.5 15.0 13.7 4.7 1.5 7.1 11.7 7.5 13.9 15.8 14.9 16.2 18.1
0.0 0.0 0.0 0.0 0.0 0.0 0.0 0.0 0.0 0.0 0.0 0.0 0.0 0.0 0.0 0.0 0.0 0.0 0.0 0.0 0.0 0.0 1.0 7.5 2.7 0.9 0.0 0.0 0.0 5.9 4.7 12.7 16.2 13.5 8.9 7.1 14.8 12.1 9.5 5.5 10.5 16.9 19.3 18.6
0.0 0.0 0.0 0.0 0.0 0.0 0.0 0.0 0.0 0.0 0.0 0.0 0.0 0.0 0.0 0.0 0.0 0.0 0.0 0.0 0.0 0.0 1.1 0.0 5.4 3.3 0.0 0.0 0.0 0.0 0.0 12.4 15.1 20.7 17.5 15.3 18.4 14.6 13.0 13.2 17.3 17.3 17.7 16.3
0.0 0.0 0.0 0.0 0.0 0.0 0.0 0.0 0.0 0.0 0.0 0.0 0.0 0.0 0.0 0.0 0.0 0.0 0.0 0.0 0.0 1.5 8.3 3.7 6.0 3.5 0.1 0.0 0.0 0.0 7.1 16.8 14.6 14.9 13.0 12.6 14.5 15.4 14.4 16.1 15.1 17.9 17.3 16.5
0.0 0.0 0.0 0.0 0.0 0.0 0.0 0.0 0.0 0.0 0.0 0.0 0.0 0.0 0.0 0.0 0.0 0.0 0.0 0.3 0.0 0.0 3.9 4.1 6.0 6.5 6.1 8.1 0.7 4.1 3.1 14.3 14.2 16.1 10.1 11.1 14.5 13.8 13.7 13.6 14.6 14.8 14.4 15.9
0.0 0.0 0.0 0.0 0.0 0.0 0.0 0.0 0.0 0.0 0.0 0.0 0.0 0.0 0.0 0.0 0.0 0.0 0.0 0.0 1.1 1.3 0.0 0.0 0.0 0.0 0.0 0.0 7.3 8.1 9.3 13.2 13.3 18.7 9.7 8.5 16.7 16.0 14.8 14.5 14.1 14.2 17.7 15.0
0.0 0.0 0.0 0.0 0.0 0.0 0.0 0.0 0.0 0.0 0.0 0.0 0.0 0.0 0.0 0.0 0.0 0.0 0.0 0.0 0.0 0.0 0.0 0.0 0.0 0.0 0.0 0.0 0.0 0.5 9.8 10.7 11.3 14.6 13.9 23.4 16.7 11.8 12.9 14.5 14.2 12.9 13.5 13.0
0.0 0.0 0.0 0.0 0.0 0.0 0.0 0.0 0.0 0.0 0.5 0.0 0.0 0.0 0.0 0.0 0.0 0.0 0.0 0.0 0.0 0.0 0.0 4.5 7.1 9.2 6.9 5.4 0.0 2.5 0.0 6.6 14.2 18.5 18.6 17.3 12.7 13.0 14.0 14.8 14.9 10.9 13.9 10.5
0.0 0.0 0.0 0.0 0.0 0.0 0.0 0.0 0.0 0.0 0.0 2.6 0.0 0.0 0.0 0.6 1.2 0.0 0.0 0.0 0.0 0.0 0.0 3.1 11.5 17.4 11.1 14.1 8.9 0.1 0.2 4.9 13.4 15.2 21.0 23.9 16.8 11.1 1.7 6.9 15.6 6.3 7.6 6.7
0.0 0.0 0.0 0.0 0.0 0.0 0.0 0.0 0.0 0.0 0.0 0.0 0.0 0.0 0.0 0.0 0.0 2.2 0.0 0.0 0.0 0.0 3.0 12.4 12.7 13.3 6.1 15.5 15.4 15.6 13.9 14.0 14.6 14.8 18.5 16.9 12.5 5.7 0.0 16.6 16.7 5.8 5.8 5.7
0.0 0.0 0.0 0.0 0.0 0.0 0.0 0.0 0.0 0.0 0.0 0.0 0.0 0.0 0.0 0.0 0.0 4.8 0.0 0.0 0.0 2.8 5.1 12.6 12.9 12.8 12.8 14.8 12.6 15.0 15.7 15.6 16.5 14.9 20.1 20.9 5.0 3.7 13.5 7.9 5.1 3.5 2.1 2.5
0.0 0.0 0.0 0.0 0.0 0.0 0.0 0.0 0.0 0.0 0.0 0.0 0.0 0.0 0.0 0.0 0.0 0.0 0.0 0.0 0.0 0.0 5.0 3.8 4.0 13.0 7.0 11.1 14.4 6.1 15.1 12.3 16.0 16.2 16.3 5.4 4.3 5.1 1.1 0.9 4.7 0.0 0.0 0.0
0.0 0.0 0.0 0.0 0.0 0.0 0.0 0.0 0.0 0.0 0.0 0.0 0.0 0.0 0.0 0.0 0.0 0.0 0.0 0.0 0.0 0.0 0.0 0.0 4.0 5.7 5.9 13.8 14.5 9.1 9.2 2.1 10.8 12.5 8.9 4.0 1.7 0.0 0.0 0.0 0.0 0.0 0.0 0.0
0.0 0.0 0.0 0.0 0.0 0.0 0.0 0.0 0.0 0.0 0.0 0.0 0.0 0.0 0.0 0.0 0.0 0.0 0.0 0.0 0.0 0.0 0.0 0.0 4.2 4.9 0.0 6.1 6.2 6.5 6.9 2.7 9.7 9.2 3.6 1.1 0.0 0.0 0.0 0.0 0.0 0.0 0.0 0.0
0.0 0.0 0.0 0.0 0.0 0.0 0.0 0.0 0.0 0.0 0.0 0.0 0.0 0.0 0.0 0.0 0.0 0.0 0.0 0.0 0.0 0.0 0.0 0.0 3.8 0.0 0.0 0.0 2.5 8.2 0.0 7.9 8.4 12.4 0.2 1.5 1.0 0.0 0.0 0.0 0.0 0.0 0.0 0.0
0.0 0.0 0.0 0.0 0.0 0.0 0.0 0.0 0.0 0.0 0.0 0.0 5.4 0.0 0.0 0.0 0.0 0.0 0.0 0.0 0.0 0.0 0.0 0.0 0.0 0.0 0.0 5.0 8.3 0.0 0.0 0.0 0.0 0.0 0.0 0.0 0.0 0.0 0.0 0.0 0.0 0.0 0.0 0.0
0.0 0.0 0.0 0.0 0.0 0.0 0.0 0.0 0.0 0.0 0.0 0.0 0.0 0.0 0.0 0.0 0.0 0.0 0.0 0.0 0.0 0.0 0.0 0.0 0.0 0.0 0.0 4.7 7.6 0.0 0.0 0.0 0.0 0.0 0.0 0.0 0.0 0.0 0.0 0.0 0.0 0.0 0.0 0.0
0.0 0.0 0.0 0.0 0.0 0.0 0.0 0.0 0.0 0.0 0.0 0.0 0.6 0.0 0.0 0.0 0.0 0.0 0.0 0.0 0.0 0.0 0.0 0.0 0.0 0.0 0.0 4.7 0.0 0.0 0.0 0.0 0.0 0.0 0.0 0.0 0.0 0.0 0.0 0.0 0.0 0.0 0.0 0.0
0.0 0.0 0.0 0.0 0.0 0.0 0.0 0.0 0.0 0.0 0.0 0.0 0.0 4.1 4.0 0.0 0.0 0.0 0.0 0.0 3.0 0.0 0.0 0.0 0.0 3.3 3.0 0.1 0.0 0.0 0.0 0.0 0.0 0.0 0.0 0.0 0.0 0.0 0.0 0.0 0.0 0.0 0.0 0.0
0.0 0.0 0.0 0.0 0.0 0.0 0.0 0.0 0.0 0.0 0.0 0.0 0.0 0.0 2.9 0.0 0.0 0.0 0.0 0.0 3.2 3.4 2.4 0.0 4.4 4.3 0.0 0.0 0.0 0.0 0.0 0.0 0.0 0.0 0.0 0.0 0.0 0.0 0.0 0.0 0.0 0.0 0.0 0.0
0.0 0.0 0.0 0.0 0.0 0.0 0.0 0.9 1.3 0.8 3.2 0.5 0.0 0.0 0.0 0.0 0.8 0.7 0.0 3.7 0.4 10.3 1.5 2.6 2.2 4.5 0.0 0.0 0.0 0.0 0.0 0.0 0.0 0.0 0.0 0.0 0.0 0.0 0.0 0.0 0.0 0.0 0.0 0.0
0.0 0.0 0.0 0.0 0.0 1.0 3.4 6.2 1.1 3.2 5.5 0.0 0.0 0.0 0.0 0.0 0.0 0.0 0.0 3.7 2.0 10.9 0.0 2.7 10.8 0.3 0.0 0.0 0.0 0.0 0.0 0.0 0.0 0.0 0.0 0.0 0.0 0.0 0.0 0.0 0.0 0.0 0.0 0.0
0.0 0.0 0.0 4.5 2.9 10.4 11.2 10.2 7.9 5.9 0.0 0.0 0.0 0.0 0.0 0.0 0.0 0.0 0.0 4.7 5.3 0.0 2.5 11.7 2.7 0.0 0.0 0.0 0.0 0.0 0.0 0.0 0.0 0.0 0.0 0.0 0.0 0.0 0.0 0.0 0.0 0.0 0.0 0.0
0.0 3.4 7.8 8.2 9.5 8.7 5.2 2.7 0.4 0.0 0.0 0.0 0.0 0.0 0.0 0.0 0.0 0.0 5.0 3.9 2.4 12.0 11.3 8.6 0.0 0.0 0.0 0.0 0.0 0.0 0.0 0.0 0.0 0.0 0.0 0.0 0.0 0.0 0.0 0.0 0.0 0.0 0.0 0.0
4.3 3.3 9.7 7.3 0.0 0.0 0.0 0.0 0.0 0.0 0.0 0.0 0.0 0.0 0.0 0.0 4.9 2.7 4.9 6.7 12.9 10.9 8.8 0.0 0.0 0.0 0.0 0.0 0.0 0.0 0.0 0.0 0.0 0.0 0.0 0.0 0.0 0.0 0.0 0.0 0.0 0.0 0.0 0.0
0.0 0.0 2.2 0.0 0.0 0.0 0.0 0.0 0.0 0.0 0.0 0.0 0.0 0.0 5.1 5.2 5.4 6.7 9.0 10.7 10.8 1.2 0.0 0.0 0.0 0.0 0.0 0.0 0.0 0.0 0.0 0.0 0.0 0.0 0.0 0.0 0.0 0.0 0.0 0.0 0.0 0.0 0.0 0.0
0.0 2.5 0.0 0.0 0.0 0.0 0.0 0.0 0.0 0.0 0.0 1.8 0.0 4.6 5.5 0.0 4.8 6.1 3.2 3.9 0.0 0.0 0.0 0.0 0.0 0.0 0.0 0.0 0.0 0.0 0.0 0.0 0.0 0.0 0.0 0.0 0.0 0.0 0.0 0.0 0.0 0.0 0.0 0.0